Regional Weather Roundup
Issued by NWS Charleston, WV

Home | Current Version | Previous Version | Graphics & Text | Print | Product List | Glossary On
Versions: 1 2 3 4 5 6 7 8 9 10 11 12 13 14 15 16 17 18 19 20 21 22 23 24 25 26 27 28 29 30 31 32 33 34 35 36 37 38 39 40 41 42 43 44 45 46 47 48 49 50
000
ASUS41 KRLX 201110
RWRRLX
West Virginia Regional Weather Roundup
National Weather Service Charleston WV
700 AM EDT SUN AUG 20 2017

Note: "fair" indicates few or no clouds below 12,000 feet with no
significant weather and/or obstructions to visibility.

WVZ003-201200-
Northern Panhandle of West Virginia

CITY           SKY/WX    TMP DP  RH WIND       PRES   REMARKS
WHEELING       FOG       60  57  89 E3        30.12R VSB 1/4
$$

WVZ009-201200-
Northwest West Virginia

CITY           SKY/WX    TMP DP  RH WIND       PRES   REMARKS
PARKERSBURG    FOG       64  63  96 E5        30.12R VSB<1/4
$$

WVZ006-201200-
Western West Virginia

CITY           SKY/WX    TMP DP  RH WIND       PRES   REMARKS
HUNTINGTON     CLEAR     66  64  93 CALM      30.07S FOG
$$

WVZ015-201200-
West Central West Virginia

CITY           SKY/WX    TMP DP  RH WIND       PRES   REMARKS
CHARLESTON     MOCLDY    66  64  93 CALM      30.10R FOG
$$

WVZ022-031-201200-
North Central West Virginia

CITY           SKY/WX    TMP DP  RH WIND       PRES   REMARKS
CLARKSBURG     CLEAR     60  58  92 CALM      30.12R
MORGANTOWN     CLEAR     61  59  93 CALM      30.14R
$$

WVZ025-035-042-045-201200-
Southern West Virginia

CITY           SKY/WX    TMP DP  RH WIND       PRES   REMARKS
BECKLEY        CLEAR     61  59  93 CALM      30.18R
LOGAN          FOG       64  64 100 CALM      30.13S VSB<1/4
BLUEFIELD      CLEAR     64  61  90 CALM      30.20R
LEWISBURG      FOG       58  58  99 CALM      30.18R VSB<1/4
$$

WVZ047-201200-
Northern Mountains of West Virginia

CITY           SKY/WX    TMP DP  RH WIND       PRES   REMARKS
ELKINS         FOG       63  61  93 CALM      30.17R VSB 3/4
$$

WVZ052-201200-
Eastern Panhandle of West Virginia

CITY           SKY/WX    TMP DP  RH WIND       PRES   REMARKS
MARTINSBURG    PTCLDY    59  58  96 S3        30.11R FOG
PETERSBURG     CLEAR     64  63  97 CALM      30.14R
$$



USA.gov is the U.S. government's official web portal to all federal, state and local government web resources and services.